Weather in Peklino

Russia / Bryansk Oblast     53°33′01″N   33°31′14″E
temp.,
°C
wind,
m/s
gust,
m/s
humid.,
%
clouds,
%
prec.,
mm/h
press.,
hPa
HPBL,
m
8 may, sat
sat800:00+9s61488100 4.2 1008978
03:00+9sse41097100 4.4 1006597
06:00+9s4998100 1.8 1004498
09:00+10s3597100 3.3 1003287
12:00+9nw3695100 2.4 1004357
15:00+7nw61194100 4.8 1004725
18:00+6nw61294100 4.1 10051134
21:00+5nw51193100 8.3 1008930
9 may, sun
sun900:00+4nw61288100 1.9 1011830
03:00+3wnw51288100 1.9 1013552
06:00+2wnw5138826 0.0 1015593
09:00+6nw711695 0.0 10181069
12:00+8nw7952100 0.1 10192029
15:00+11nw6844100 0.1 10212421
18:00+10nw46535 0.0 10221872
21:00+5wnw33705 0.0 102541
10 may, mon
mon1000:00+3wnw34775 0.0 102753
03:00+3nw22805 0.0 102836
06:00+3n11761 0.0 103012
09:00+10ene11555 0.0 1030383
12:00+14n11401 0.0 10291447
15:00+15nne22390 0.0 10291553
18:00+14nne22495 0.0 1028895
21:00+9ne22640 0.0 102915
11 may, tue
tue1100:00+7e22740 0.0 102913
03:00+5ne23780 0.0 103044
06:00+5ne38780 0.0 1029157
09:00+11ene59560 0.0 1028641
12:00+16ene57420 0.0 10271043
15:00+18ene57450 0.0 10251216
18:00+17e586242 0.0 10251229
21:00+13e398225 0.0 1025336
12 may, wed
wed1200:00+10ene37945 0.0 1024125
03:00+11ne4119094 0.0 1022339
06:00+11ene499099 0.0 1021517
09:00+9sse4996100 1.7 1022578
12:00+11e36864 0.7 1022457
15:00+15ese485951 0.8 10201731
18:00+16ese476391 0.0 10201383
21:00+11e228286 0.1 101942